Dewpoint
60 57 56 57 55 54 50 44 37 39 34 31 31 29 28 29 28 29 27 30 31 30 33 31 32 32 30 31 31 34 34 30 33 30 32 45 53 58 57 60 61 62 65 66 66 67 68 68 69 69 69 69 69 69 69 69 69 68 69 69 68 68 68 67 67 66 66 65 65 65 65 65 66 67 68 69 68 68 68 68 68 68 68 69 69 70 70 70 70 71 71 70 69 70 70 69 69
57 55 55 55 54 53 48 40 34 31 30 27 29 28 29 30 29 30 29 29 32 35 32 31 31 28 28 28 30 29 30 33 34 31 43 49 55 59 60 60 60 62 65 67 66 67 67 68 69 69 69 69 69 69 69 69 68 69 69 69 69 69 68 68 67 66 66 66 65 66 66 64 66 68 69 69 69 68 68 68 68 69 69 69 69 69 70 70 70 70 71 71 70 70 69 69 69
55 53 52 53 48 48 45 40 34 28 28 24 26 28 29 25 27 27 30 29 31 33 33 30 29 27 27 27 27 27 28 32 36 40 43 53 52 54 59 61 60 61 65 66 66 67 67 67 68 69 68 69 69 69 69 69 69 69 69 69 68 69 68 68 68 67 66 66 66 66 65 64 66 68 68 68 69 69 69 69 69 69 69 70 70 70 70 70 70 71 69 70 70 70 69 68 69
56 55 52 52 47 43 40 37 33 30 30 25 24 26 28 27 26 27 28 29 28 30 29 28 29 34 28 26 26 26 27 27 38 39 41 54 49 58 58 60 60 60 64 66 66 66 66 67 67 68 68 68 69 69 69 68 69 69 69 69 68 68 68 67 67 67 66 66 66 66 66 66 68 68 68 68 68 69 69 70 69 69 69 70 71 69 70 70 70 70 69 70 70 69 69 68 68
55 55 51 46 44 38 37 35 32 29 22 27 20 24 28 30 27 29 29 31 31 30 28 29 27 29 27 28 23 25 23 33 34 46 50 54 56 57 57 60 60 61 63 64 66 66 66 66 67 67 68 69 69 69 69 68 68 68 68 68 68 68 67 67 68 67 66 66 67 67 67 67 67 66 68 68 69 68 69 69 69 69 69 70 70 70 70 71 71 69 70 69 70 70 69 68 68
48 49 48 49 43 41 32 29 27 30 27 27 25 25 25 24 28 29 28 28 28 31 30 27 27 28 24 25 24 23 31 22 42 48 54 56 55 57 57 60 60 61 61 63 65 66 66 66 66 67 68 68 69 69 68 68 68 68 68 68 68 68 68 67 67 67 66 66 68 67 65 65 66 67 67 66 68 68 69 69 69 70 69 70 70 70 71 70 70 70 71 70 71 70 68 68 67
46 43 43 42 38 39 34 27 26 25 25 27 28 27 26 26 27 27 27 23 27 30 29 29 24 29 25 28 26 29 37 44 40 50 53 54 53 55 57 60 60 60 60 62 64 65 65 65 66 67 67 67 68 69 68 68 68 68 68 68 68 68 67 67 66 65 66 67 67 66 66 66 66 66 66 67 67 68 69 69 69 70 70 70 70 71 71 70 70 69 70 69 70 69 68 68 67
49 42 39 37 34 30 27 26 27 27 25 28 30 27 27 27 27 26 26 24 24 20 26 28 24 25 24 22 22 36 38 46 47 52 53 54 55 56 57 59 60 59 60 61 63 63 63 64 65 66 66 67 68 68 68 68 68 68 68 68 67 67 67 67 66 67 68 67 66 66 66 66 66 66 66 66 67 68 68 69 69 69 70 70 70 71 70 69 70 70 69 69 69 68 67 68 67
39 41 41 35 27 29 26 26 24 26 28 29 29 32 39 36 34 27 24 24 20 18 17 19 25 20 22 18 23 35 28 39 46 50 52 53 55 56 57 58 59 59 58 60 61 62 63 64 65 66 66 67 67 68 68 68 68 68 68 68 68 68 67 66 66 67 67 67 66 66 66 66 66 67 67 67 67 68 68 68 69 69 69 70 70 71 70 69 70 69 69 70 68 68 67 67 67
37 36 31 29 28 25 27 25 22 24 24 25 24 23 24 27 28 25 25 23 23 18 17 19 21 17 18 17 18 27 27 45 49 50 52 52 54 55 56 57 57 58 58 59 60 61 62 62 64 65 66 66 67 67 67 67 67 67 68 68 68 68 66 66 68 67 67 67 67 67 67 66 67 67 67 67 67 68 68 68 68 69 69 70 70 70 70 69 69 69 69 69 68 66 66 66 66
30 37 34 29 24 23 25 19 22 24 23 24 26 27 27 24 25 21 22 25 19 20 17 20 20 20 19 19 20 35 37 46 50 45 50 53 53 55 56 55 56 56 58 58 60 61 62 62 62 64 65 66 66 67 67 67 67 68 68 67 68 67 66 68 68 67 67 67 67 67 66 67 67 66 67 67 68 68 68 68 68 69 69 69 70 69 70 69 69 69 68 67 68 68 67 66 66
28 31 32 24 25 24 23 23 22 23 26 27 20 21 25 22 19 22 18 21 23 18 16 18 20 19 19 19 24 31 32 31 47 49 50 51 54 53 54 55 55 57 57 58 61 62 62 63 63 62 64 65 65 66 66 67 67 67 67 67 67 67 66 66 67 67 67 67 66 66 67 67 67 67 67 67 67 68 68 68 68 68 69 68 69 69 69 68 68 68 68 67 67 67 67 67 67
30 33 26 25 24 23 26 26 26 32 27 20 20 21 20 19 20 19 20 18 19 17 17 17 22 21 18 21 27 27 21 32 44 49 50 52 52 51 53 54 55 56 57 59 61 61 62 62 62 63 63 63 63 64 65 66 67 67 67 67 66 67 66 67 67 67 67 66 66 66 66 66 67 67 66 67 67 67 67 67 67 67 66 66 68 67 68 68 68 68 67 67 68 67 66 66 67
33 33 30 26 28 25 26 26 24 23 20 22 22 20 21 20 19 20 19 19 18 17 18 18 19 19 18 22 22 23 26 37 42 50 49 50 49 50 53 54 55 56 58 59 60 62 63 62 63 64 63 63 63 64 63 64 65 66 66 66 67 67 67 67 67 67 66 66 66 66 66 65 65 66 67 67 67 67 67 67 67 66 66 65 67 67 67 67 68 68 68 67 67 67 67 66 67
35 35 31 29 26 25 26 23 25 26 21 24 22 20 22 27 22 21 18 18 17 19 20 20 24 22 15 22 20 28 32 32 46 50 49 49 50 51 52 54 54 56 57 58 59 61 61 62 63 64 63 64 64 65 65 65 63 64 65 65 66 66 67 66 66 66 66 66 65 65 64 63 62 63 65 66 67 66 66 66 66 66 65 65 66 66 67 67 67 67 67 67 67 67 65 65 66
37 32 31 29 26 25 25 25 22 24 19 20 21 21 19 19 21 21 19 19 23 24 21 17 24 18 23 24 24 29 27 43 49 50 50 48 50 52 54 53 55 55 56 57 58 60 60 61 62 63 63 63 64 64 65 64 63 62 63 64 65 65 66 65 65 65 64 62 62 62 61 63 62 64 61 65 63 64 64 64 64 65 66 66 66 67 67 68 67 67 67 67 67 66 65 64 65
39 36 27 23 23 22 25 25 22 20 20 21 20 19 18 18 23 20 21 19 18 17 20 19 20 27 19 19 31 32 39 50 51 50 49 48 51 52 53 54 54 55 56 57 58 59 60 61 62 63 63 63 64 64 64 64 64 62 62 62 62 63 64 64 64 63 61 60 60 59 59 65 65 66 66 66 61 66 60 60 63 65 65 65 66 66 67 67 67 67 66 66 66 65 63 62 62
35 30 27 24 25 22 25 21 21 24 24 19 21 19 19 18 20 19 19 18 18 18 18 18 20 20 20 26 34 46 46 48 49 50 50 49 50 49 50 51 54 53 55 56 57 59 60 61 61 62 63 63 64 63 63 63 64 63 65 66 65 64 63 61 63 65 60 64 59 62 64 63 64 65 65 61 65 64 62 59 61 65 66 65 65 65 66 67 66 67 66 66 64 63 61 63 62
31 26 25 22 24 25 25 23 23 20 20 20 20 21 19 18 17 19 17 17 18 17 17 18 17 18 19 19 20 22 32 42 48 49 48 46 47 46 46 47 50 52 53 56 57 57 59 61 61 62 63 63 63 63 63 64 63 63 64 65 65 63 63 62 65 63 63 63 62 63 62 63 63 64 64 63 62 58 62 59 61 63 64 64 64 64 65 66 66 66 65 64 63 62 62 62 62
32 29 26 26 26 23 24 22 22 20 21 20 20 20 21 18 18 22 21 17 17 17 17 18 19 19 20 24 26 28 39 42 47 47 47 46 45 44 43 45 45 49 51 54 55 58 59 60 61 61 63 63 63 62 63 64 64 63 63 64 64 64 64 64 64 63 63 62 62 62 63 62 63 63 57 56 57 63 61 59 60 60 60 61 61 63 63 64 65 64 64 63 61 60 61 60 60
31 27 27 25 27 22 21 24 23 22 23 21 20 20 18 18 19 21 19 17 17 18 19 18 18 18 19 22 28 32 40 43 44 47 48 47 47 46 43 42 42 44 49 55 56 57 58 59 61 62 62 63 62 62 62 63 63 63 62 63 63 63 62 62 62 62 62 62 62 62 62 61 62 61 62 61 62 62 63 63 63 64 64 63 60 62 62 63 63 63 61 60 60 59 59 58 58
30 25 26 26 25 24 22 23 24 24 24 22 19 18 18 19 19 17 18 17 17 18 19 22 19 19 19 19 20 31 37 39 40 44 45 46 45 45 45 46 48 50 53 55 54 55 58 59 60 62 62 62 62 62 62 62 62 62 62 62 62 62 62 62 61 61 61 61 62 62 61 61 60 61 62 62 61 62 62 63 63 62 63 61 61 61 60 60 59 60 59 58 58 58 58 58 57
22 22 22 23 25 23 24 21 22 19 20 18 19 20 18 18 17 18 18 17 18 20 19 19 19 19 19 19 24 24 27 33 35 38 38 42 44 45 44 44 45 47 51 52 53 55 57 58 60 62 62 62 62 62 62 62 62 62 62 61 61 61 61 61 61 61 61 61 61 61 61 60 60 61 61 61 61 62 62 62 62 62 61 60 60 59 58 58 58 58 58 57 57 57 56 56 57
24 21 22 22 22 22 23 21 22 19 19 18 19 19 17 17 17 20 17 18 18 19 19 19 19 20 20 19 20 21 23 23 27 28 35 37 39 40 43 44 45 47 51 50 53 55 57 58 59 61 62 62 62 62 62 61 62 62 61 60 61 60 61 61 61 61 61 61 61 61 61 61 60 60 60 61 61 61 61 61 60 62 60 60 58 58 57 57 57 57 57 57 57 57 56 56 56
23 22 23 21 21 20 22 20 19 19 19 19 20 18 17 18 18 18 18 18 19 19 19 19 20 20 21 20 19 20 24 25 24 26 30 38 43 45 48 48 49 50 49 49 51 54 55 58 59 60 62 62 62 62 61 61 61 61 61 60 60 59 60 60 61 61 60 60 60 61 60 60 60 60 60 60 61 61 60 59 60 60 60 58 57 57 57 57 57 57 56 56 56 56 56 55 56
22 21 21 19 20 20 20 19 19 19 19 18 18 17 17 18 24 18 18 19 19 20 19 20 20 20 20 19 19 20 21 23 26 25 25 29 38 44 44 46 48 49 48 49 51 53 55 57 60 60 61 61 61 62 62 61 61 61 60 59 60 58 60 60 60 60 60 60 59 59 60 61 60 60 60 60 60 60 60 59 59 58 58 58 57 56 57 56 56 56 56 56 55 55 54 54 55
22 21 20 19 19 19 21 20 19 20 20 18 17 18 19 20 20 16 19 19 20 19 21 20 19 19 19 20 23 22 21 21 22 25 25 26 28 36 37 42 47 47 48 50 50 51 54 56 59 60 61 61 62 61 61 61 61 61 60 60 60 59 60 60 60 60 60 60 59 59 59 60 60 60 60 60 60 60 59 59 58 58 58 57 56 55 56 56 56 56 56 56 55 55 53 54 54
21 19 19 19 18 20 20 21 21 22 22 18 19 19 20 19 23 16 17 18 20 19 20 20 21 21 20 21 21 26 23 25 23 25 25 23 25 25 27 30 34 42 48 48 49 51 54 56 57 59 60 62 61 61 60 61 60 60 60 60 60 59 59 59 59 59 59 59 59 59 59 59 59 60 60 60 59 59 58 59 57 57 57 57 56 55 55 55 56 56 55 55 55 55 54 53 54
21 19 18 18 21 19 18 20 22 24 21 19 20 19 17 21 16 19 18 20 20 21 22 22 23 22 22 22 21 22 23 23 24 25 26 24 25 24 24 25 29 38 42 47 49 53 54 55 57 58 60 62 61 61 61 60 60 60 60 60 59 59 59 59 59 59 59 59 59 59 59 59 59 59 60 60 59 59 58 58 57 57 57 56 55 55 55 54 54 54 54 54 54 54 54 53 53
20 18 18 17 21 15 17 21 23 21 21 21 22 18 17 16 17 18 19 22 22 23 23 23 24 24 22 22 22 24 25 25 24 27 25 26 25 24 24 24 26 34 38 43 51 51 52 54 56 58 59 61 61 61 61 60 60 60 60 60 59 59 59 59 58 59 58 58 59 59 59 59 59 59 59 59 59 58 58 57 56 56 56 55 55 55 55 54 54 54 53 54 53 54 53 53 53
20 20 23 22 20 18 20 21 23 20 23 21 23 21 18 21 21 21 24 22 22 23 23 22 23 24 24 26 26 26 27 26 27 25 28 27 25 26 26 25 25 26 32 38 46 48 51 53 55 56 58 60 61 60 61 60 60 60 60 60 59 59 59 59 58 59 59 58 58 59 59 58 59 59 59 58 58 58 57 57 56 56 55 54 55 55 54 54 54 53 53 53 53 53 53 52 52
23 16 19 23 21 19 21 24 23 20 21 22 23 23 21 21 23 25 26 25 24 23 22 21 22 24 26 26 26 27 28 28 29 29 29 28 26 26 26 26 26 27 27 29 38 47 50 53 55 56 59 60 60 61 60 61 60 60 60 57 59 59 59 59 58 58 58 58 58 58 59 58 59 59 58 58 57 57 57 56 55 54 54 54 53 53 54 53 53 53 53 53 52 51 51 51 52
23 22 22 22 23 21 21 20 24 22 22 24 23 22 22 20 21 24 25 26 26 24 21 19 21 25 26 26 26 27 27 27 29 28 29 29 26 26 25 26 27 28 28 29 33 39 47 51 54 55 57 59 60 60 60 61 60 60 59 59 59 59 59 59 58 58 58 58 58 58 58 58 58 59 58 58 57 57 57 56 54 53 53 54 53 53 53 53 52 52 52 53 53 51 51 50 50
22 24 22 24 21 21 20 21 22 24 22 22 23 22 22 23 23 24 24 24 21 17 16 18 23 26 26 27 26 26 25 25 26 27 28 28 26 25 24 29 28 27 28 29 36 41 44 47 51 54 56 58 59 59 60 60 60 60 60 59 58 59 59 59 59 58 58 57 57 57 58 57 57 58 58 58 57 57 56 55 54 53 53 53 53 53 53 52 52 52 51 51 52 52 51 50 49
21 22 22 21 21 21 21 21 22 23 22 22 23 23 23 23 23 23 22 22 18 15 16 21 25 26 27 26 25 25 25 23 26 25 26 25 24 24 24 26 28 29 28 28 34 43 47 49 51 54 55 56 58 59 59 60 60 60 60 59 59 59 59 59 59 58 58 57 57 57 57 56 56 57 57 57 57 56 55 54 53 52 53 52 52 52 52 51 51 51 51 50 51 52 52 51 49
21 21 21 21 21 22 21 22 23 23 23 23 23 23 22 22 22 21 20 18 15 15 18 26 26 26 26 25 24 24 25 22 24 24 24 22 23 24 24 26 27 28 27 28 32 34 41 46 51 53 54 55 57 58 58 58 59 58 57 58 58 58 58 58 59 58 57 57 57 57 57 57 56 56 57 57 56 55 54 53 52 52 52 52 52 51 50 50 50 50 50 50 50 49 49 49 49
22 24 24 21 23 22 24 23 24 24 23 23 23 22 21 21 20 20 17 14 14 16 21 27 26 26 26 23 21 22 21 22 28 24 23 23 23 23 25 26 27 27 27 28 29 30 34 41 47 48 51 54 56 57 58 58 57 57 58 57 57 57 57 58 58 58 58 57 57 57 57 56 56 56 55 56 55 53 54 53 52 52 52 52 51 51 51 50 51 51 50 49 49 48 48 48 47
22 23 24 22 24 21 23 23 24 24 23 21 22 21 20 20 20 17 15 13 15 19 26 27 25 24 25 22 19 20 20 24 23 21 22 22 22 25 26 27 30 27 27 27 28 30 31 36 41 45 49 53 55 56 57 58 59 58 58 57 57 57 57 57 57 58 58 57 57 57 56 56 56 55 54 55 54 54 53 52 51 51 52 52 51 51 50 49 49 49 49 49 49 49 47 48 47
24 23 23 23 23 25 24 24 24 24 23 20 21 20 19 18 18 15 11 16 19 27 28 28 26 25 23 22 19 18 20 20 20 21 22 20 23 23 26 29 29 28 28 28 29 29 29 31 33 38 43 48 52 55 56 57 57 58 57 57 57 57 58 58 58 58 57 57 57 57 56 56 56 55 54 54 54 53 53 52 51 51 51 51 51 49 49 49 49 49 49 49 48 48 48 47 48
23 23 23 22 25 23 21 22 23 24 24 24 22 21 20 20 14 8 9 15 18 29 30 30 31 28 25 21 18 18 19 20 20 20 19 19 20 21 26 29 30 30 28 28 28 29 29 30 31 33 35 40 46 51 54 56 57 57 58 58 58 58 57 57 57 57 57 57 57 57 56 56 56 55 54 54 54 53 53 52 52 52 51 51 51 50 49 49 49 49 50 49 48 46 46 45 46
25 25 24 24 24 24 25 22 24 21 22 26 19 15 11 9 5 10 13 17 24 27 23 19 21 30 28 24 21 21 20 21 21 20 20 19 19 19 25 30 31 30 29 29 29 29 29 31 33 35 35 36 40 46 51 54 56 57 57 57 57 57 57 57 56 56 56 56 56 56 56 56 56 55 55 54 53 53 53 52 52 51 51 51 51 50 49 49 49 49 50 49 49 47 46 46 44
24 25 25 25 25 24 24 25 23 14 11 21 16 8 5 5 13 14 15 18 25 26 18 10 10 22 22 15 18 21 24 23 21 21 20 20 20 20 24 29 32 31 29 29 29 29 30 32 34 36 37 37 38 41 45 51 54 55 56 55 54 55 54 55 54 54 55 54 55 56 56 56 56 55 55 54 53 53 53 53 51 51 51 50 50 51 50 50 49 49 50 49 49 49 47 45 44
23 24 26 26 25 25 24 22 21 11 8 17 21 14 9 12 13 16 17 21 22 17 14 6 2 15 20 15 19 21 22 21 22 21 20 19 20 19 21 28 32 31 30 30 30 30 30 32 34 36 37 38 40 40 42 46 52 54 55 54 55 54 54 55 55 56 55 56 56 56 56 56 56 55 54 54 53 52 52 52 51 50 51 50 49 50 50 49 49 49 49 49 50 49 47 46 45
22 25 26 26 25 23 23 23 23 20 22 24 23 21 15 12 20 20 21 17 18 6 2 3 -3 7 18 13 20 22 22 21 21 20 19 20 19 19 18 26 31 31 31 31 31 30 31 31 33 35 37 39 39 40 41 43 47 51 53 54 55 55 55 55 56 55 55 55 56 56 55 55 55 55 54 53 53 52 52 51 51 50 50 50 48 50 50 50 50 49 49 49 50 49 47 46 44
24 26 26 25 24 24 24 24 22 22 22 18 19 23 15 16 18 12 8 12 10 7 -3 -3 -5 2 11 14 21 21 21 20 20 19 19 20 19 19 19 23 30 32 32 31 31 31 31 31 32 33 35 38 39 39 40 42 44 48 51 52 54 55 56 54 55 56 55 55 56 56 55 55 55 55 54 53 52 52 50 51 50 49 48 49 47 48 48 48 48 48 47 47 47 47 47 46 44
25 26 26 25 25 25 25 23 22 19 18 13 17 21 14 10 9 6 16 12 5 1 -4 -4 -4 2 12 15 18 16 17 18 19 18 18 19 20 19 20 23 28 31 31 32 31 31 31 31 31 32 34 37 38 38 39 41 43 45 49 51 52 53 55 55 55 55 55 56 55 55 55 55 55 54 54 53 52 52 51 50 49 48 48 48 46 48 47 47 47 47 46 46 46 45 46 45 44
25 25 19 22 24 24 23 23 21 16 13 13 19 20 9 3 6 9 14 11 5 -3 -3 -3 -2 4 11 11 12 12 14 16 17 17 17 19 20 19 19 21 27 29 30 30 31 31 31 31 31 31 34 37 38 38 38 39 42 45 47 50 51 51 53 55 55 55 55 55 55 55 55 55 54 54 54 53 52 52 51 49 48 48 48 46 45 46 45 45 46 46 46 46 45 45 45 45 44
14 14 22 18 12 19 16 10 11 8 5 7 8 7 5 -0 2 12 10 2 -3 -2 -3 -2 1 6 9 8 6 7 10 14 16 15 14 18 20 20 20 20 24 27 28 29 30 30 31 31 30 31 33 36 38 38 37 38 40 43 46 48 50 51 52 53 54 54 54 54 54 54 55 55 54 54 54 53 52 51 51 49 48 48 46 46 46 45 44 44 45 45 45 45 45 45 45 44 44
15 21 20 10 8 8 -4 -1 -5 5 -4 -2 2 5 1 1 0 17 5 -2 -2 -1 -1 1 5 5 4 2 4 6 11 12 12 11 11 16 20 20 20 20 22 25 27 28 29 30 30 30 30 31 33 36 38 38 37 36 38 40 43 46 48 49 52 53 54 54 54 54 54 54 54 54 54 53 53 52 52 51 50 50 48 47 46 45 45 45 45 45 44 44 44 44 45 44 43 43 43
18 19 17 8 4 -0 -11 -9 -4 0 1 1 -5 3 4 5 11 18 10 3 -0 -0 1 6 6 3 2 3 5 8 12 12 11 10 11 16 19 21 20 20 20 23 25 27 28 28 29 30 30 30 32 36 38 37 36 36 36 37 40 43 47 49 50 52 53 55 55 54 55 54 54 54 54 53 53 53 52 51 50 49 48 47 47 46 45 46 45 45 44 43 44 43 44 44 43 43 43
18 24 19 9 6 -8 -14 -10 -12 -6 -4 1 5 2 3 3 11 10 2 2 -0 1 2 7 7 4 4 5 8 9 11 9 8 8 11 14 19 21 21 20 20 22 24 26 27 26 28 29 30 30 32 35 37 37 37 36 36 37 38 41 44 47 50 51 53 53 55 54 54 54 54 54 54 54 53 53 52 51 50 50 49 48 47 46 46 47 46 46 44 44 43 44 44 43 42 42 43
19 19 18 6 6 17 -3 0 -3 -4 1 3 3 -2 1 1 6 8 3 1 -1 2 4 8 2 2 5 7 9 10 8 7 7 8 10 13 18 21 21 21 20 21 22 25 25 26 27 27 29 30 32 35 37 37 37 36 36 37 39 40 43 45 47 50 51 52 54 55 55 53 53 54 54 54 54 53 53 52 51 50 48 48 47 46 45 45 45 44 44 44 44 43 42 42 42 41 41
7 1 -5 1 19 14 8 6 9 6 3 2 -1 -9 -5 -5 -9 4 2 0 -1 2 3 2 1 3 6 8 10 8 6 6 6 8 9 13 17 20 22 21 20 20 21 23 24 25 26 27 28 29 31 34 36 37 37 36 36 37 38 40 42 43 44 47 49 51 53 55 55 55 53 53 53 53 54 53 53 52 51 50 49 48 48 47 46 46 45 44 43 43 43 43 41 41 42 41 42
14 1 1 15 19 14 5 -2 0 -1 -7 -7 -5 -7 -13 -9 -7 4 1 1 0 2 2 2 3 5 5 8 7 6 5 5 6 7 9 13 17 20 22 22 21 19 20 21 22 24 26 27 27 28 30 33 35 37 38 37 37 38 38 40 41 41 42 43 47 49 51 53 54 54 54 53 53 54 53 53 53 52 51 49 49 49 48 46 45 45 44 43 43 42 40 40 40 40 40 40 42
2 3 14 -6 -9 -7 1 -6 -12 -13 -13 -10 -10 -7 -6 -6 -4 3 0 -0 1 2 3 2 3 4 5 4 3 4 4 6 7 7 10 13 15 17 19 20 20 19 19 20 23 24 26 25 25 27 30 33 36 38 38 38 38 38 38 40 40 40 40 41 43 45 49 51 53 54 54 54 54 53 53 52 52 51 51 50 50 49 48 46 45 45 43 42 42 42 39 38 38 38 38 38 38
17 14 11 16 11 3 -4 -5 -4 -4 -5 -6 -7 -4 -6 5 2 2 1 1 3 2 3 3 4 4 1 1 2 3 5 6 7 8 9 11 12 13 16 18 19 18 18 19 21 23 22 22 23 25 29 32 35 37 38 37 38 38 38 39 40 40 40 41 41 42 46 50 53 53 53 53 54 52 53 53 52 51 51 50 50 49 48 47 45 44 43 41 40 40 39 38 36 37 37 36 36
4 5 5 6 3 4 3 3 -0 -2 -8 -10 -5 -5 -4 6 3 3 3 2 3 3 4 6 4 2 0 0 2 4 5 6 7 8 8 9 9 10 13 15 17 18 18 19 20 19 18 20 22 24 27 30 33 36 37 37 38 38 38 39 39 40 40 40 41 41 42 47 51 52 53 53 53 53 53 52 51 51 51 50 50 49 48 47 46 45 43 42 39 39 38 37 36 35 35 35 34
4 5 3 7 6 3 -2 -4 3 -4 -6 -7 -3 -3 0 6 3 3 3 3 4 4 6 3 1 -1 -0 2 2 3 6 6 6 8 8 9 9 10 11 13 15 16 17 16 16 16 16 16 19 22 27 30 32 34 36 37 37 38 37 38 39 39 39 39 39 40 41 44 49 53 52 52 52 53 53 52 51 51 51 50 50 49 48 47 46 45 43 41 39 38 37 37 36 35 35 34 33